Tracking 32963 objects as of 22-Jan-2026
HD Live streaming from Space Station
objects crossing your sky now

STARLINK-34009

Track STARLINK-34009 now!
10-day predictions
STARLINK-34009 is classified as:


NORAD ID: 63849
Int'l Code: 2025-093P
Perigee: 489.7 km
Apogee: 490.8 km
Inclination: 43.0 °
Period: 94.3 minutes
Semi major axis: 6861 km
RCS: Unknown
Launch date: May 7, 2025
Source: United States (US)
Launch site: AIR FORCE EASTERN TEST RANGE (AFETR)
Your satellite tracking list
Your tracking list is empty




NASA's NSSDC Master Catalog

Two Line Element Set (TLE):
1 63849U 25093P   26021.31188201  .00042618  00000-0  15501-2 0  9999
2 63849  43.0014 342.2367 0000808 293.6941  66.3826 15.27563854 40765
Source of the keplerian elements: AFSPC